Regional Weather Roundup
Issued by NWS

Home | Current Version | Previous Version | Text Only | Print | Product List | Glossary On
Versions: 1 2 3 4 5 6 7 8 9 10 11 12 13 14 15 16 17 18 19 20 21 22 23 24 25 26 27
000
ASUS45 KCYS 241010
RWRWY

WYOMING REGIONAL WEATHER ROUNDUP
NATIONAL WEATHER SERVICE CHEYENNE WY
300 AM MST WED JAN 24 2018

NOTE:  "FAIR" INDICATES FEW OR NO CLOUDS BELOW 12,000 FEET
WITH NO SIGNIFICANT WEATHER AND/OR OBSTRUCTIONS TO VISIBILITY.

WYZ001-241100-
YELLOWSTONE NATIONAL PARK

CITY           SKY/WX    TMP DP  RH WIND       PRES   REMARKS
LK YELLOWSTONE   N/A     13  10  88 CALM      30.18F
W YELLOWSTONE  NOT AVBL

$$
WYZ002>013-054>058-071-098>099-241100-
NORTHERN WYOMING

CITY           SKY/WX    TMP DP  RH WIND       PRES   REMARKS
JACKSON        CLOUDY    10   6  84 N10       30.23S WCI  -4
CODY           FAIR      37  13  37 W22G31    30.02F WCI  26
GREYBULL       FAIR       7   4  87 CALM      30.11F
WORLAND        FAIR       2   0  91 S5        30.09F WCI  -8
SHERIDAN       FAIR      12   8  84 CALM      29.98S
BUFFALO        FAIR      22   5  48 N3        29.98F
GILLETTE         N/A     27  15  61 SW18      30.00F WCI  14
HULETT         FAIR      27  14  59 SW9       30.03F WCI  17
NEWCASTLE      FAIR      14   9  79 CALM      30.12S

$$
WYZ014>020-022>026-101>103-241100-
CENTRAL WYOMING

CITY           SKY/WX    TMP DP  RH WIND       PRES   REMARKS
BIG PINEY      FAIR      -1  -4  87 N5        30.25F WCI -11
PINEDALE       FAIR      -2  -6  84 W7        30.25F WCI -16
DUBOIS         FAIR      23   9  54 N22G30    30.08F WCI   8
LANDER         FAIR      13   6  74 CALM      30.11F
RIVERTON       FAIR       7   3  84 W5        30.12S WCI  -2
CASPER         FAIR      26  16  65 SW21G29   30.11F WCI  12
DOUGLAS        FAIR       7   4  87 SE3       30.09F

$$
WYZ021-027>030-104>119-241100-
SOUTHERN WYOMING

CITY           SKY/WX    TMP DP  RH WIND       PRES   REMARKS
EVANSTON       FAIR      19  12  74 S8        30.24S WCI   9
FORT BRIDGER   FAIR      17  11  80 S6        30.28R WCI   8
ROCK SPRINGS   FAIR      13   5  70 SE5       30.25F WCI   5
DIXON            N/A      6   2  84 SE3       30.34F
RAWLINS        FLURRIES  23  15  71 SW30G39   30.19F WCI   5
SARATOGA       FAIR      12   5  73 SE9       30.23S WCI   0
LARAMIE        FAIR      21   9  59 SW24      30.15S WCI   4
CHEYENNE       FAIR      19  11  70 S14       30.14F WCI   6
TORRINGTON     FAIR       7   4  87 E9        30.15F WCI  -7

$$




USA.gov is the U.S. government's official web portal to all federal, state and local government web resources and services.